Notices

What's New in latest Release from April 7th, 2021:

- Updated Glossary, including Speed of Maximum Gust, and Total Hourly Precipitation

- Updated national and regional climate services offices contacts and prices information

- Addition of station inventory lists for 1981-2010, 1971-2000, and 1961-1990 Normals.

If you haven't already, please take our survey and provide feedback about our website: https://eccc.sondage-survey.ca/f/LanguageSelection.aspx?s=442ca660-fcf1-47c0-95a9-59707d6fd709

Hourly Data Report for March 17, 2020

MIRAMICHI RCS
NEW BRUNSWICK
Current Station Operator: ECCC - MSC

47°00'34.000" N
65°27'54.000" W
33.00 m
8100989
71744
ACQ

Download Data

Hourly Data (March 2020)
Hourly Data Report for March 17, 2020
TIME
LST
Temp Definition
°C
Dew Point Definition
°C
Rel Hum Definition
%
Precip. Amount Definition
mm

Wind Dir Definition
10's deg

Wind Spd Definition
km/h
Visibility Definition
km
Stn Press Definition
kPa
Hmdx Definition


Wind Chill Definition


Weather Definition


00:00 -10.2 -12.6 83 LegendMM 19 7   102.93   -14 LegendNANA
01:00 -10.2 -12.7 81 LegendMM 17 14   102.87   -17 LegendNANA
02:00 -10.0 -12.6 81 LegendMM 18 13   102.78   -16 LegendNANA
03:00 -10.3 -12.6 84 LegendMM 17 10   102.68   -16 LegendNANA
04:00 -10.5 -12.5 85 LegendMM 18 7   102.62   -15 LegendNANA
05:00 -9.8 -11.8 85 LegendMM 19 11   102.64   -15 LegendNANA
06:00 -9.0 -11.1 85 LegendMM 16 10   102.56   -14 LegendNANA
07:00 -7.3 -9.7 83 LegendMM 17 16   102.46   -14 LegendNANA
08:00 -6.4 -9.5 79 LegendMM 17 19   102.35   -13 LegendNANA
09:00 -4.1 -8.4 72 LegendMM 18 20   102.23   -10 LegendNANA
10:00 -1.6 -6.8 68 LegendMM 20 25   102.11   -8 LegendNANA
11:00 -0.7 -6.7 63 LegendMM 20 30   101.97   -7 LegendNANA
12:00 0.3 -6.4 61 LegendMM 20 28   101.84     LegendNANA
13:00 1.2 -7.0 54 LegendMM 18 29   101.63     LegendNANA
14:00 1.0 -7.2 54 LegendMM 18 27   101.53     LegendNANA
15:00 1.2 -7.3 53 LegendMM 19 36   101.39     LegendNANA
16:00 1.1 -7.6 52 LegendMM 19 37   101.26     LegendNANA
17:00 0.1 -5.1 68 LegendMM 20 36   101.14     LegendNANA
18:00 -0.7 -3.4 82 LegendMM 19 33   101.09   -8 LegendNANA
19:00 -0.7 -2.8 86 LegendMM 19 22   101.00   -6 LegendNANA
20:00 -0.2 -2.3 86 LegendMM 21 23   100.98   -6 LegendNANA
21:00 0.0 -1.7 88 LegendMM 21 26   100.95   -6 LegendNANA
22:00 0.2 -1.3 90 LegendMM 22 23   100.91     LegendNANA
23:00 0.4 -1.1 90 LegendMM 22 22   100.85     LegendNANA

Notes on Data Quality.

Legend

  • E = Estimated
  • M = Missing
  • NA = Not Available*
  • [empty] = Indicates an unobserved value
Date modified: